Location: �terpigny
(49.8910°N, 2.9249°E)
Time: 10:54:40
(UTC+00:00)

ATLAS 3B R/B - Pass Details

Date: 24 October 2021
Orbit: 989 x 1206 km, 63.8° (Epoch: 25 November)

Event Time Altitude Azimuth Distance (km) Brightness Sun altitude
Rises 17:40:21 0° 251° (WSW) 3,737 7.4 -10.4°
Reaches altitude 10° 17:43:04 10° 258° (WSW) 2,810 6.5 -10.9°
Maximum altitude 17:49:19 42° 329° (NNW) 1,461 3.7 -11.9°
Drops below altitude 10° 17:55:54 10° 39° (NE) 2,958 4.6 -12.9°
Enters shadow 17:57:13 - 43° (NE) 3,397 4.9 -13.1°
